Date,TemperatureHighF,TemperatureAvgF,TemperatureLowF,DewpointHighF,DewpointAvgF,DewpointLowF,HumidityHigh,HumidityAvg,HumidityLow,PressureMaxIn,PressureMinIn,WindSpeedMaxMPH,WindSpeedAvgMPH,GustSpeedMaxMPH,PrecipitationSumIn
2013-3-1,35.2,31.2,25.0,24.3,21.3,15.0,73,67,59,30.33,30.20,22,6,22,0.00
2013-3-2,135.9,24.1,20.5,99.9,-7.9,-99.9,72,47,45,30.35,30.13,10,2,10,0.00
2013-3-3,55.0,51.3,48.2,36.2,34.2,32.7,55,52,49,29.68,29.62,12,6,12,0.00
2013-3-4,58.3,46.4,38.8,38.8,33.8,28.9,77,62,47,30.07,29.57,28,8,28,0.04
2013-3-5,49.3,38.5,30.0,32.2,22.3,17.4,78,53,43,30.37,30.07,34,11,34,0.04
2013-3-6,49.8,39.0,25.9,25.4,21.2,15.3,64,50,38,30.40,30.16,16,4,16,0.00
2013-3-7,64.9,50.5,34.9,32.9,27.4,21.0,60,43,29,30.16,29.98,28,10,30,0.00
2013-3-8,60.1,52.7,46.4,45.9,37.7,28.4,71,57,42,30.08,29.88,29,12,29,0.00
2013-3-9,54.3,53.3,52.7,46.6,45.5,44.2,78,75,69,29.89,29.78,28,12,28,0.00
2013-3-14,76.8,69.0,57.0,48.6,43.8,39.1,51,41,32,30.17,30.06,16,3,16,0.00
2013-3-15,80.8,66.5,48.6,52.5,45.9,37.1,68,49,36,30.08,29.70,23,5,23,0.00
2013-3-16,65.1,49.5,38.1,46.7,35.8,26.7,68,60,51,29.99,29.71,28,10,28,0.00
2013-3-17,42.1,38.2,34.0,32.8,29.2,24.8,80,70,64,29.99,29.68,25,6,25,0.02
2013-3-18,60.4,48.8,37.2,37.7,30.8,21.8,82,54,30,30.04,29.75,24,6,24,0.04
2013-3-19,58.8,44.5,31.8,28.2,22.8,16.1,61,43,30,30.27,30.02,15,4,15,0.00
2013-3-20,51.1,41.8,31.3,27.0,20.9,15.9,71,45,31,30.40,30.01,19,4,19,0.00
2013-3-21,48.2,39.1,33.6,26.0,19.4,14.7,72,46,34,30.01,29.72,24,10,24,0.00
2013-3-22,49.1,38.0,30.4,33.9,28.1,24.7,80,68,52,29.96,29.84,14,4,14,0.00
2013-3-23,51.1,33.3,31.3,45.4,28.2,26.5,88,82,72,29.95,29.83,27,7,27,0.14
2013-3-24,80.4,33.4,27.1,63.2,23.7,17.5,89,68,48,30.14,29.91,33,13,33,0.10
2013-3-25,147.7,56.3,30.6,99.9,25.1,-99.9,82,48,21,30.36,30.14,25,10,25,0.02
2013-3-26,51.8,39.0,23.5,29.2,22.0,14.3,70,51,38,30.41,30.18,14,3,14,0.00
2013-3-27,61.9,48.8,38.8,36.6,28.5,20.4,52,46,38,30.18,30.06,27,7,27,0.00
2013-3-28,68.0,54.4,37.9,47.0,37.8,27.7,68,54,44,30.16,30.05,13,2,13,0.00
2013-3-29,73.2,63.0,49.8,55.3,48.7,40.4,76,60,48,30.14,30.02,15,4,15,0.00
2013-3-30,74.8,62.4,53.8,59.3,52.9,47.6,86,72,54,30.04,29.86,18,4,18,0.49
2013-3-31,72.3,61.5,48.4,51.4,44.1,36.6,78,55,36,30.06,29.96,23,4,24,0.02